Location: Newark
(0.5300°S, 127.4800°E)
Time: 02:30:12
(UTC+00:00)

A-11 Canister half - Pass Details

Date: 25 September 2019
Orbit: 1514 x 1686 km, 47.2° (Epoch: 18 October)

Event Time Altitude Azimuth Distance (km) Brightness Sun altitude
Rises 22:42:07 0° 250° (WSW) 4,847 11.1 20.1°
Reaches altitude 10° 22:46:11 10° 263° (W) 3,829 10.6 21.1°
Maximum altitude 22:53:17 23° 311° (NW) 2,886 10.2 22.9°
Drops below altitude 10° 23:00:16 10° 360° (N) 3,722 11.1 24.6°
Sets 23:04:13 0° 14° (NNE) 4,680 11.7 25.6°
